EDT,Max TemperatureF,Mean TemperatureF,Min TemperatureF,Max Dew PointF,MeanDew PointF,Min DewpointF,Max Humidity, Mean Humidity, Min Humidity, Max Sea Level PressureIn, Mean Sea Level PressureIn, Min Sea Level PressureIn, Max VisibilityMiles, Mean VisibilityMiles, Min VisibilityMiles, Max Wind SpeedMPH, Mean Wind SpeedMPH, Max Gust SpeedMPH,PrecipitationIn, CloudCover, Events, WindDirDegrees
2013-3-1,32,30,28,32,27,21,100,87,69,29.94,29.88,29.81,10,9,3,10,5,16,0.24,7,Rain-Snow,318
2013-3-2,28,27,24,25,22,19,93,82,69,29.94,29.91,29.88,10,7,1,10,6,,0.76,6,Snow,313
2013-3-3,26,24,23,23,20,16,100,84,74,30.00,29.94,29.91,10,6,0,13,6,17,2.80,7,Snow,278
2013-3-4,35,28,21,19,15,12,86,61,41,30.12,30.06,30.00,10,10,5,10,5,16,0.03,3,Snow,257
2013-3-5,50,39,28,37,28,19,100,70,50,30.05,29.83,29.56,10,9,3,14,2,20,0.18,4,Rain-Snow,113
2013-3-6,33,32,30,34,32,28,100,100,93,30.12,29.89,29.58,10,6,0,16,5,22,2.42,8,Rain-Snow,285
2013-3-7,37,34,32,32,31,28,100,91,75,30.26,30.20,30.10,10,8,5,12,8,18,0.00,7,Rain,281
2013-3-8,35,32,30,30,26,21,93,76,65,30.38,30.33,30.24,10,10,9,14,7,21,0.00,6,,348
2013-3-9,59,42,26,28,26,23,100,62,27,30.38,30.27,30.17,10,10,8,7,1,,0.00,0,,90
2013-3-10,71,58,44,32,28,21,47,35,21,30.18,30.10,30.03,10,10,10,16,3,21,0.00,0,,166
2013-3-11,60,56,51,50,34,27,94,45,29,30.04,29.89,29.78,10,10,3,21,9,30,0.05,1,Rain,180
2013-3-12,51,43,35,52,35,28,100,89,75,30.03,29.92,29.78,10,8,2,16,9,25,0.26,8,Rain,248
2013-3-13,33,30,26,32,27,19,100,87,64,30.16,30.02,29.95,10,7,0,20,9,36,6.39,6,Snow,250
2013-3-14,37,30,23,21,17,14,86,60,38,30.26,30.18,30.13,10,9,3,15,10,25,0.15,3,Snow,261
2013-3-15,51,40,28,34,25,16,65,56,47,30.15,29.98,29.84,10,10,10,15,7,20,0.00,1,,226
2013-3-16,60,50,41,50,44,36,100,85,59,29.92,29.75,29.63,10,9,0,21,8,30,0.18,6,Rain,251
2013-3-17,42,37,32,39,33,30,100,96,87,30.13,30.05,29.93,10,6,1,13,5,,1.18,7,Rain-Snow,7
2013-3-18,51,42,33,43,37,32,100,80,62,30.05,29.86,29.68,10,8,2,22,6,31,0.39,5,Rain,156
2013-3-19,51,42,33,48,25,3,100,59,23,30.01,29.86,29.72,10,9,2,41,15,50,0.05,4,Rain,255
2013-3-20,42,36,28,25,15,9,65,44,31,30.01,29.92,29.78,10,10,10,24,13,39,0.00,1,,257
2013-3-21,28,24,19,19,11,7,86,58,47,29.95,29.87,29.83,10,9,2,17,8,28,0.23,4,Rain-Snow,283
2013-3-22,39,31,23,14,13,10,63,50,33,30.01,29.96,29.93,10,10,10,17,9,26,0.00,2,,240
2013-3-23,46,34,23,21,17,12,86,53,27,30.04,29.98,29.93,10,10,7,10,2,16,0.00,0,,252
2013-3-24,46,39,32,36,26,18,100,70,43,29.93,29.68,29.44,10,8,0,10,5,,1.15,3,Rain-Snow,59
2013-3-25,33,32,32,32,32,30,100,99,93,29.75,29.54,29.43,10,3,0,10,3,,3.41,8,Rain-Snow,229
2013-3-26,37,34,32,34,32,28,100,94,70,30.10,29.94,29.75,10,7,1,15,7,25,1.56,7,Rain-Snow,286
2013-3-27,35,32,30,32,29,25,100,85,65,30.20,30.15,30.10,10,8,0,15,10,26,1.14,6,Rain-Snow,260
2013-3-28,39,36,32,28,26,23,75,69,60,30.27,30.22,30.17,10,10,10,13,8,17,0.00,7,,260
2013-3-29,48,40,33,30,27,21,87,60,34,30.28,30.24,30.18,10,10,10,13,3,21,0.00,4,,257
2013-3-30,55,44,32,32,27,23,100,56,29,30.24,30.15,30.01,10,10,10,10,1,20,0.00,2,,248
2013-3-31,48,44,39,48,40,27,100,86,49,30.01,29.85,29.77,10,8,1,13,3,18,0.22,5,Rain,232